Weather History for KOXV - February, 2014

Change the Weather History Date:

Sunday, February 16, 2014

  Actual Average (KDSM) Record (KDSM)
Temperature  
Mean Temperature 24 °F 28 °F  
Max Temperature 26 °F 36 °F 66 °F (1981)
Min Temperature 21 °F 19 °F -19 °F (1958)
Degree Days  
Heating Degree Days 42 37  
Month to date heating degree days 633  
Since 1 July heating degree days 4413  
Cooling Degree Days 0 0  
Month to date cooling degree days 0  
Year to date cooling degree days 0  
Moisture  
Dew Point 16 °F    
Average Humidity 73    
Maximum Humidity 86    
Minimum Humidity 64    
Precipitation  
Precipitation 0.00 in 0.05 in 0.66 in (1932)
Month to date precipitation 0.67  
Year to date precipitation 1.67  
Snow  
Snow 0.00 in 0.30 in 4.00 in (1975)
Month to date snowfall 4.9  
Since 1 July snowfall 25.3  
Snow Depth -    
Sea Level Pressure  
Sea Level Pressure 30.11 in    
Wind  
Wind Speed 13 mph (ENE)    
Max Wind Speed 21 mph    
Max Gust Speed 29 mph    
Visibility 10 miles    
Events Snow    
T = Trace of Precipitation, MM = Missing Value Source: NWS Daily Summary

Daily Weather History Graph

Daily Weather History Graph

Search for Another Location

Airport or City:

Trip Planner

Search our weather history database for the weather conditions in past years. The results will help you decide how hot, cold, wet, or windy it might be!

Date:

Astronomy

Feb. 16, 2014 Rise Set
Actual Time 7:05 AM CST 5:47 PM CST
Civil Twilight 6:37 AM CST 6:16 PM CST
Nautical Twilight 6:05 AM CST 6:48 PM CST
Astronomical Twilight 5:33 AM CST 7:20 PM CST
Moon 7:46 PM CST (2/16) 7:34 AM CST (2/16)
Length of Visible Light 11h 38m
Length of Day
10h 41m
Full, 97% of the Moon is Illuminated
Feb 16
Full
Feb 22
Last Quarter
Mar 1
New
Mar 8
First Quarter
Mar 16
Full

Hourly Weather History & Observations

Time (CST) Temp. Windchill Dew Point Humidity Pressure Visibility Wind Dir Wind Speed Gust Speed Precip Events Conditions
12:15 AM 24.8 °F 11.1 °F 19.4 °F 80% 29.99 in 7.0 mi NNW 18.4 mph 28.8 mph N/A   Overcast
12:35 AM 24.8 °F 12.4 °F 19.4 °F 80% 30.01 in 9.0 mi NNW 15.0 mph 23.0 mph N/A   Overcast
12:55 AM 24.8 °F 11.5 °F 19.4 °F 80% 30.02 in 10.0 mi NW 17.3 mph - N/A   Overcast
1:15 AM 24.8 °F 12.9 °F 19.4 °F 80% 30.03 in 10.0 mi NW 13.8 mph 19.6 mph N/A   Overcast
1:35 AM 24.8 °F 12.4 °F 19.4 °F 80% 30.03 in 10.0 mi NW 15.0 mph - N/A   Overcast
1:55 AM 24.8 °F 11.9 °F 17.6 °F 74% 30.05 in 10.0 mi NW 16.1 mph - N/A   Overcast
2:15 AM 23.0 °F 9.2 °F 17.6 °F 80% 30.06 in 10.0 mi NNW 17.3 mph - N/A   Overcast
2:35 AM 23.0 °F 12.4 °F 17.6 °F 80% 30.07 in 10.0 mi NNW 10.4 mph - N/A   Overcast
2:55 AM 23.0 °F 10.6 °F 19.4 °F 86% 30.08 in 10.0 mi NNW 13.8 mph 20.7 mph N/A   Overcast
3:15 AM 23.0 °F 10.6 °F 19.4 °F 86% 30.09 in 10.0 mi NNW 13.8 mph - N/A   Overcast
3:35 AM 23.0 °F 12.4 °F 19.4 °F 86% 30.09 in 10.0 mi NNW 10.4 mph - N/A   Overcast
3:55 AM 23.0 °F 13.9 °F 19.4 °F 86% 30.10 in 10.0 mi NNW 8.1 mph - N/A   Overcast
4:15 AM 23.0 °F 13.9 °F 19.4 °F 86% 30.12 in 9.0 mi NW 8.1 mph - N/A   Overcast
4:35 AM 23.0 °F 12.4 °F 19.4 °F 86% 30.12 in 10.0 mi NW 10.4 mph 17.3 mph N/A   Overcast
4:55 AM 23.0 °F 9.6 °F 17.6 °F 80% 30.11 in 10.0 mi NW 16.1 mph - N/A   Overcast
5:15 AM 23.0 °F 10.1 °F 17.6 °F 80% 30.12 in 10.0 mi NNW 15.0 mph - N/A   Overcast
5:35 AM 23.0 °F 11.7 °F 15.8 °F 74% 30.12 in 10.0 mi NNW 11.5 mph - N/A   Overcast
5:55 AM 23.0 °F 13.1 °F 15.8 °F 74% 30.12 in 10.0 mi North 9.2 mph - N/A   Overcast
6:15 AM 21.2 °F 10.1 °F 15.8 °F 80% 30.14 in 10.0 mi NNW 10.4 mph - N/A   Overcast
6:35 AM 21.2 °F 10.9 °F 15.8 °F 80% 30.14 in 10.0 mi NNW 9.2 mph 16.1 mph N/A   Overcast
6:55 AM 21.2 °F 9.5 °F 15.8 °F 80% 30.15 in 10.0 mi NNW 11.5 mph - N/A   Overcast
7:15 AM 21.2 °F 9.5 °F 14.0 °F 74% 30.16 in 10.0 mi NNW 11.5 mph - N/A   Overcast
7:35 AM 21.2 °F 8.9 °F 14.0 °F 74% 30.16 in 10.0 mi NNW 12.7 mph - N/A   Overcast
7:55 AM 21.2 °F 10.1 °F 14.0 °F 74% 30.18 in 10.0 mi North 10.4 mph - N/A   Overcast
8:15 AM 21.2 °F 10.1 °F 14.0 °F 74% 30.19 in 9.0 mi North 10.4 mph - N/A   Overcast
8:35 AM 21.2 °F 10.9 °F 14.0 °F 74% 30.20 in 9.0 mi NNW 9.2 mph 15.0 mph N/A Snow Light Snow
8:55 AM 21.2 °F 10.9 °F 14.0 °F 74% 30.20 in 10.0 mi NNW 9.2 mph - N/A   Overcast
9:15 AM 21.2 °F 10.1 °F 14.0 °F 74% 30.20 in 10.0 mi NNW 10.4 mph - N/A   Overcast
9:35 AM 21.2 °F 10.9 °F 14.0 °F 74% 30.20 in 10.0 mi North 9.2 mph - N/A   Overcast
9:55 AM 21.2 °F 10.9 °F 14.0 °F 74% 30.21 in 10.0 mi North 9.2 mph - N/A   Overcast
10:15 AM 21.2 °F 12.6 °F 14.0 °F 74% 30.20 in 10.0 mi North 6.9 mph 15.0 mph N/A   Overcast
10:35 AM 21.2 °F 12.6 °F 14.0 °F 74% 30.20 in 10.0 mi Variable 6.9 mph - N/A   Overcast
10:55 AM 21.2 °F 12.6 °F 14.0 °F 74% 30.21 in 10.0 mi NE 6.9 mph - N/A   Overcast
11:15 AM 21.2 °F 11.7 °F 14.0 °F 74% 30.20 in 10.0 mi NE 8.1 mph - N/A   Overcast
11:35 AM 23.0 °F 17.0 °F 14.0 °F 68% 30.21 in 10.0 mi East 4.6 mph - N/A   Overcast
11:55 AM 23.0 °F 17.0 °F 14.0 °F 68% 30.20 in 10.0 mi Variable 4.6 mph - N/A   Overcast
12:15 PM 23.0 °F 15.8 °F 14.0 °F 68% 30.19 in 10.0 mi ENE 5.8 mph - N/A   Overcast
12:35 PM 23.0 °F 15.8 °F 14.0 °F 68% 30.18 in 10.0 mi ESE 5.8 mph - N/A   Overcast
12:55 PM 23.0 °F 15.8 °F 14.0 °F 68% 30.18 in 10.0 mi ESE 5.8 mph - N/A   Mostly Cloudy
1:15 PM 24.8 °F 17.9 °F 14.0 °F 64% 30.17 in 10.0 mi Variable 5.8 mph - N/A   Overcast
1:35 PM 23.0 °F 13.1 °F 14.0 °F 68% 30.16 in 10.0 mi SE 9.2 mph - N/A   Overcast
1:55 PM 24.8 °F 16.9 °F 14.0 °F 64% 30.16 in 10.0 mi SE 6.9 mph - N/A   Mostly Cloudy
2:15 PM 24.8 °F 16.1 °F 14.0 °F 64% 30.15 in 10.0 mi SE 8.1 mph - N/A   Mostly Cloudy
2:35 PM 24.8 °F 15.3 °F 14.0 °F 64% 30.14 in 10.0 mi ESE 9.2 mph - N/A   Mostly Cloudy
2:55 PM 24.8 °F 14.6 °F 14.0 °F 64% 30.12 in 10.0 mi ESE 10.4 mph 16.1 mph N/A   Mostly Cloudy
3:15 PM 24.8 °F 12.9 °F 15.8 °F 69% 30.12 in 9.0 mi SE 13.8 mph - N/A   Partly Cloudy
3:35 PM 24.8 °F 14.6 °F 14.0 °F 64% 30.12 in 9.0 mi SE 10.4 mph - N/A   Clear
3:55 PM 24.8 °F 14.6 °F 15.8 °F 69% 30.12 in 9.0 mi ESE 10.4 mph - N/A   Clear
4:15 PM 24.8 °F 14.6 °F 15.8 °F 69% 30.12 in 10.0 mi ESE 10.4 mph - N/A   Scattered Clouds
4:35 PM 26.6 °F 17.5 °F 15.8 °F 64% 30.12 in 10.0 mi SE 9.2 mph - N/A   Mostly Cloudy
4:55 PM 26.6 °F 16.2 °F 15.8 °F 64% 30.10 in 10.0 mi ESE 11.5 mph 18.4 mph N/A   Mostly Cloudy
5:15 PM 24.8 °F - 15.8 °F 69% 30.10 in 10.0 mi North - - N/A   Mostly Cloudy
5:35 PM 24.8 °F 12.9 °F 15.8 °F 69% 30.09 in 10.0 mi SE 13.8 mph - N/A   Scattered Clouds
5:55 PM 24.8 °F 13.4 °F 15.8 °F 69% 30.09 in 10.0 mi SE 12.7 mph - N/A   Mostly Cloudy
6:15 PM 24.8 °F 12.9 °F 15.8 °F 69% 30.09 in 10.0 mi SE 13.8 mph 19.6 mph N/A   Overcast
6:35 PM 24.8 °F 13.4 °F 15.8 °F 69% 30.10 in 10.0 mi SE 12.7 mph - N/A   Overcast
6:55 PM 24.8 °F 14.0 °F 15.8 °F 69% 30.10 in 10.0 mi SE 11.5 mph - N/A   Overcast
7:15 PM 24.8 °F 12.9 °F 15.8 °F 69% 30.09 in 10.0 mi SE 13.8 mph 20.7 mph N/A   Overcast
7:35 PM 24.8 °F 12.9 °F 15.8 °F 69% 30.09 in 10.0 mi SE 13.8 mph - N/A   Overcast
7:55 PM 24.8 °F 14.0 °F 15.8 °F 69% 30.07 in 10.0 mi SE 11.5 mph 18.4 mph N/A   Overcast
8:15 PM 24.8 °F 13.4 °F 15.8 °F 69% 30.07 in 10.0 mi SE 12.7 mph 21.9 mph N/A   Overcast
8:35 PM 24.8 °F 12.9 °F 17.6 °F 74% 30.06 in 10.0 mi SE 13.8 mph - N/A   Overcast
8:55 PM 24.8 °F 12.4 °F 17.6 °F 74% 30.05 in 10.0 mi SE 15.0 mph 20.7 mph N/A   Overcast
9:15 PM 24.8 °F 12.9 °F 17.6 °F 74% 30.05 in 10.0 mi ESE 13.8 mph 19.6 mph N/A   Overcast
9:35 PM 24.8 °F 10.3 °F 15.8 °F 69% 30.03 in 10.0 mi SE 20.7 mph 26.5 mph N/A   Overcast
9:55 PM 24.8 °F 11.1 °F 15.8 °F 69% 30.03 in 10.0 mi SE 18.4 mph 28.8 mph N/A   Overcast
10:15 PM 24.8 °F 11.9 °F 17.6 °F 74% 30.04 in 10.0 mi SSE 16.1 mph 25.3 mph N/A   Overcast
10:35 PM 24.8 °F 11.1 °F 17.6 °F 74% 30.03 in 10.0 mi SSE 18.4 mph - N/A   Overcast
10:55 PM 24.8 °F 11.5 °F 17.6 °F 74% 30.03 in 10.0 mi SE 17.3 mph 25.3 mph N/A   Overcast
11:15 PM 24.8 °F 12.4 °F 17.6 °F 74% 30.03 in 10.0 mi SE 15.0 mph - N/A   Overcast
11:35 PM 24.8 °F 12.9 °F 17.6 °F 74% 30.03 in 10.0 mi SE 13.8 mph 19.6 mph N/A   Overcast
11:55 PM 24.8 °F 13.4 °F 17.6 °F 74% 30.01 in 10.0 mi SE 12.7 mph 23.0 mph N/A   Overcast